H1 CPF 1 NER 2019 4 12 9 6021 glonass135 H2 1600801 9135 41330 2019 4 12 0 0 0 2019 4 15 23 45 0 900 1 1 0 0 0 H9 10 0 58585 0.00000 0 -3989554.439 9854357.803 -23175402.775 10 0 58585 900.00000 0 -6668990.006 8878704.173 -22954882.571 10 0 58585 1800.00000 0 -9361204.208 8121477.681 -22288146.932 10 0 58585 2700.00000 0 -11996146.986 7591274.287 -21188263.721 10 0 58585 3600.00000 0 -14504361.894 7284074.056 -19676710.858 10 0 58585 4500.00000 0 -16819674.057 7183559.673 -17782951.427 10 0 58585 5400.00000 0 -18881749.931 7261965.992 -15543854.748 10 0 58585 6300.00000 0 -20638423.004 7481423.688 -13002974.852 10 0 58585 7200.00000 0 -22047689.339 7795739.224 -10209700.593 10 0 58585 8100.00000 0 -23079290.834 8152535.139 -7218293.994 10 0 58585 9000.00000 0 -23715821.218 8495659.638 -4086835.548 10 0 58585 9900.00000 0 -23953309.710 8767763.300 -876097.063 10 0 58585 10800.00000 0 -23801259.158 8912933.790 2351636.061 10 0 58585 11700.00000 0 -23282138.160 8879277.148 5533770.296 10 0 58585 12600.00000 0 -22430349.438 8621336.631 8608613.803 10 0 58585 13500.00000 0 -21290718.504 8102246.956 11516567.330 10 0 58585 14400.00000 0 -19916566.490 7295533.005 14201273.454 10 0 58585 15300.00000 0 -18367448.179 6186476.970 16610702.221 10 0 58585 16200.00000 0 -16706649.938 4772995.976 18698152.796 10 0 58585 17100.00000 0 -14998551.983 3065992.529 20423152.402 10 0 58585 18000.00000 0 -13305964.785 1089162.099 21752235.785 10 0 58585 18900.00000 0 -11687550.260 -1121735.512 22659590.836 10 0 58585 19800.00000 0 -10195434.688 -3520112.246 23127558.411 10 0 58585 20700.00000 0 -8873112.300 -6050245.494 23146976.976 10 0 58585 21600.00000 0 -7753726.372 -8649360.867 22717365.476 10 0 58585 22500.00000 0 -6858799.108 -11250019.247 21846940.597 10 0 58585 23400.00000 0 -6197463.083 -13782710.465 20552467.504 10 0 58585 24300.00000 0 -5766226.276 -16178547.242 18858946.083 10 0 58585 25200.00000 0 -5549280.613 -18371948.381 16799137.656 10 0 58585 26100.00000 0 -5519341.279 -20303200.084 14412940.218 10 0 58585 27000.00000 0 -5638981.795 -21920788.886 11746623.196 10 0 58585 27900.00000 0 -5862408.798 -23183408.709 8851935.529 10 0 58585 28800.00000 0 -6137601.778 -24061557.589 5785103.818 10 0 58585 29700.00000 0 -6408727.147 -24538656.669 2605739.607 10 0 58585 30600.00000 0 -6618724.046 -24611643.818 -624322.927 10 0 58585 31500.00000 0 -6711951.619 -24291016.358 -3842235.730 10 0 58585 32400.00000 0 -6636784.459 -23600320.739 -6985367.831 10 0 58585 33300.00000 0 -6348044.923 -22575110.513 -9992533.578 10 0 58585 34200.00000 0 -5809167.768 -21261416.679 -12805193.033 10 0 58585 35100.00000 0 -4994003.937 -19713795.272 -15368600.120 10 0 58585 36000.00000 0 -3888185.678 -17993035.081 -17632875.274 10 0 58585 36900.00000 0 -2489994.008 -16163622.711 -19553980.912 10 0 58585 37800.00000 0 -810690.771 -14291072.382 -21094580.435 10 0 58585 38700.00000 0 1125699.699 -12439233.192 -22224763.950 10 0 58585 39600.00000 0 3283150.820 -10667687.269 -22922626.803 10 0 58585 40500.00000 0 5614904.617 -9029347.924 -23174690.136 10 0 58585 41400.00000 0 8065200.453 -7568358.026 -22976155.939 10 0 58585 42300.00000 0 10571389.627 -6318375.924 -22330992.285 10 0 58585 43200.00000 0 13066347.894 -5301319.495 -21251847.817 10 0 58585 44100.00000 0 15481085.601 -4526619.507 -19759797.722 10 0 58585 45000.00000 0 17747446.900 -3991011.965 -17883926.660 10 0 58585 45900.00000 0 19800785.999 -3678876.396 -15660757.122 10 0 58585 46800.00000 0 21582509.447 -3563104.166 -13133534.572 10 0 58585 47700.00000 0 23042378.970 -3606458.735 -10351383.474 10 0 58585 48600.00000 0 24140479.577 -3763369.212 -7368350.703 10 0 58585 49500.00000 0 24848771.582 -3982080.472 -4242354.954 10 0 58585 50400.00000 0 25152162.520 -4207068.308 -1034062.693 10 0 58585 51300.00000 0 25049055.115 -4381617.055 2194287.557 10 0 58585 52200.00000 0 24551349.245 -4450450.475 5380089.789 10 0 58585 53100.00000 0 23683898.618 -4362304.615 8461580.587 10 0 58585 54000.00000 0 22483445.610 -4072333.916 11379031.435 10 0 58585 54900.00000 0 20997079.304 -3544248.964 14075900.485 10 0 58585 55800.00000 0 19280281.494 -2752095.637 16499921.799 10 0 58585 56700.00000 0 17394642.353 -1681600.426 18604111.599 10 0 58585 57600.00000 0 15405340.907 -331024.767 20347672.690 10 0 58585 58500.00000 0 13378495.033 1288508.242 21696780.206 10 0 58585 59400.00000 0 11378490.806 3153229.672 22625234.173 10 0 58585 60300.00000 0 9465401.703 5227475.574 23114966.780 10 0 58585 61200.00000 0 7692604.375 7464943.083 23156394.873 10 0 58585 62100.00000 0 6104689.488 9810401.326 22748610.904 10 0 58585 63000.00000 0 4735753.938 12201787.741 21899408.382 10 0 58585 63900.00000 0 3608145.162 14572604.238 20625140.747 10 0 58585 64800.00000 0 2731709.516 16854515.029 18950415.543 10 0 58585 65700.00000 0 2103575.952 18980039.140 16907628.749 10 0 58585 66600.00000 0 1708483.997 20885226.125 14536347.128 10 0 58585 67500.00000 0 1519642.282 22512203.720 11882549.453 10 0 58585 68400.00000 0 1500081.525 23811490.904 8997740.339 10 0 58585 69300.00000 0 1604444.932 24743979.115 5937953.225 10 0 58585 70200.00000 0 1781140.180 25282497.866 2762661.535 10 0 58585 71100.00000 0 1974761.540 25412898.237 -466380.832 10 0 58585 72000.00000 0 2128678.890 25134607.833 -3686346.578 10 0 58585 72900.00000 0 2187682.906 24460633.147 -6834565.467 10 0 58585 73800.00000 0 2100573.077 23417008.748 -9849753.260 10 0 58585 74700.00000 0 1822577.486 22041716.257 -12673213.991 10 0 58585 75600.00000 0 1317500.347 20383118.725 -15249991.175 10 0 58585 76500.00000 0 559504.954 18497976.622 -17529944.603 10 0 58585 77400.00000 0 -465544.690 16449129.403 -19468730.984 10 0 58585 78300.00000 0 -1759241.367 14302940.664 -21028669.006 10 0 58585 79200.00000 0 -3310327.816 12126614.600 -22179471.877 10 0 58585 80100.00000 0 -5094939.186 9985496.672 -22898833.292 10 0 58585 81000.00000 0 -7077385.214 7940471.604 -23172855.879 10 0 58585 81900.00000 0 -9211439.761 6045567.244 -22996314.429 10 0 58585 82800.00000 0 -11442083.985 4345863.918 -22372749.463 10 0 58585 83700.00000 0 -13707630.486 2875795.551 -21314390.012 10 0 58585 84600.00000 0 -15942139.960 1657912.172 -19841907.725 10 0 58585 85500.00000 0 -18078029.592 702153.949 -17984007.611 10 0 58586 0.00000 0 -20048764.633 5665.232 -15776863.792 10 0 58586 900.00000 0 -21791521.087 -446845.420 -13263411.165 10 0 58586 1800.00000 0 -23249709.079 -682216.503 -10492507.747 10 0 58586 2700.00000 0 -24375251.072 -737454.584 -7517982.990 10 0 58586 3600.00000 0 -25130521.593 -657925.343 -4397591.437 10 0 58586 4500.00000 0 -25489866.851 -495191.492 -1191891.781 10 0 58586 5400.00000 0 -25440641.893 -304589.961 2036926.814 10 0 58586 6300.00000 0 -24983722.368 -142651.161 5226248.399 10 0 58586 7200.00000 0 -24133470.075 -64469.644 8314240.561 10 0 58586 8100.00000 0 -22917154.256 -121137.385 11241048.126 10 0 58586 9000.00000 0 -21373853.113 -357348.072 13949947.402 10 0 58586 9900.00000 0 -19552881.695 -809273.491 16388438.961 10 0 58586 10800.00000 0 -17511811.671 -1502801.616 18509258.395 10 0 58586 11700.00000 0 -15314165.306 -2452210.887 20271286.157 10 0 58586 12600.00000 0 -13026879.274 -3659336.913 21640339.505 10 0 58586 13500.00000 0 -10717643.180 -5113267.469 22589831.950 10 0 58586 14400.00000 0 -8452222.630 -6790579.780 23101287.956 10 0 58586 15300.00000 0 -6291877.339 -8656111.625 23164703.286 10 0 58586 16200.00000 0 -4290980.651 -10664235.775 22778744.050 10 0 58586 17100.00000 0 -2494938.594 -12760586.430 21950780.385 10 0 58586 18000.00000 0 -938494.393 -14884167.359 20696753.495 10 0 58586 18900.00000 0 355511.502 -16969755.498 19040877.812 10 0 58586 19800.00000 0 1376874.616 -18950501.098 17015182.935 10 0 58586 20700.00000 0 2128222.363 -20760616.768 14658903.117 10 0 58586 21600.00000 0 2624664.724 -22338043.613 12017724.996 10 0 58586 22500.00000 0 2892914.421 -23626982.965 9142907.170 10 0 58586 23400.00000 0 2969913.755 -24580187.219 6090288.050 10 0 58586 24300.00000 0 2901026.293 -25160912.997 2919200.907 10 0 58586 25200.00000 0 2737870.233 -25344453.604 -308682.797 10 0 58586 26100.00000 0 2535885.773 -25119185.273 -3530558.814 10 0 58586 27000.00000 0 2351740.427 -24487082.169 -6683720.065 10 0 58586 27900.00000 0 2240683.401 -23463677.600 -9706786.259 10 0 58586 28800.00000 0 2253962.424 -22077472.449 -12540908.052 10 0 58586 29700.00000 0 2436413.897 -20368815.478 -15130921.270 10 0 58586 30600.00000 0 2824329.819 -18388302.509 -17426427.789 10 0 58586 31500.00000 0 3443692.944 -16194762.084 -19382781.256 10 0 58586 32400.00000 0 4308855.953 -13852912.501 -20961958.109 10 0 58586 33300.00000 0 5421721.250 -11430788.870 -22133296.856 10 0 58586 34200.00000 0 6771456.659 -8997048.308 -22874091.385 10 0 58586 35100.00000 0 8334759.518 -6618266.089 -23170027.256 10 0 58586 36000.00000 0 10076658.401 -4356335.543 -23015453.093 10 0 58586 36900.00000 0 11951819.086 -2266079.770 -22413482.464 10 0 58586 37800.00000 0 13906300.144 -393173.970 -21375924.980 10 0 58586 38700.00000 0 15879684.858 1227536.250 -19923048.541 10 0 58586 39600.00000 0 17807500.283 2573251.856 -18083177.885 10 0 58586 40500.00000 0 19623822.459 3633923.668 -15892137.619 10 0 58586 41400.00000 0 21263959.029 4412414.542 -13392550.811 10 0 58586 42300.00000 0 22667097.232 4924115.561 -10633006.993 10 0 58586 43200.00000 0 23778806.835 5196034.350 -7667115.842 10 0 58586 44100.00000 0 24553293.585 5265395.579 -4552464.970 10 0 58586 45000.00000 0 24955309.227 5177814.005 -1349502.194 10 0 58586 45900.00000 0 24961638.529 4985118.285 1879636.022 10 0 58586 46800.00000 0 24562101.446 4742918.198 5072327.246 10 0 58586 47700.00000 0 23760028.811 4508018.507 8166673.534 10 0 58586 48600.00000 0 22572191.934 4335788.919 11102696.407 10 0 58586 49500.00000 0 21028189.164 4277601.249 13823493.497 10 0 58586 50400.00000 0 19169315.054 4378441.862 16276334.789 10 0 58586 51300.00000 0 17046959.115 4674800.021 18413677.848 10 0 58586 52200.00000 0 14720600.459 5192921.108 20194083.034 10 0 58586 53100.00000 0 12255481.275 5947498.447 21583011.623 10 0 58586 54000.00000 0 9720055.090 6940859.183 22553492.097 10 0 58586 54900.00000 0 7183314.876 8162679.238 23086642.264 10 0 58586 55800.00000 0 4712111.034 9590240.399 23172037.393 10 0 58586 56700.00000 0 2368569.528 11189220.233 22807917.361 10 0 58586 57600.00000 0 207716.383 12914983.451 22001228.517 10 0 58586 58500.00000 0 -1724593.550 14714322.390 20767498.919 10 0 58586 59400.00000 0 -3393358.168 16527575.568 19130548.487 10 0 58586 60300.00000 0 -4775650.557 18291037.183 17122038.633 10 0 58586 61200.00000 0 -5861331.576 19939557.882 14780868.944 10 0 58586 62100.00000 0 -6653223.092 21409228.607 12152431.503 10 0 58586 63000.00000 0 -7166734.801 22640035.322 9287736.276 10 0 58586 63900.00000 0 -7428960.432 23578372.914 6242423.910 10 0 58586 64800.00000 0 -7477281.711 24179312.062 3075684.721 10 0 58586 65700.00000 0 -7357539.391 24408522.724 -150895.115 10 0 58586 66600.00000 0 -7121849.231 24243772.104 -3374537.233 10 0 58586 67500.00000 0 -6826156.212 23675932.781 -6532500.484 10 0 58586 68400.00000 0 -6527631.594 22709457.366 -9563311.199 10 0 58586 69300.00000 0 -6282024.323 21362298.742 -12407969.162 10 0 58586 70200.00000 0 -6141080.258 19665278.562 -15011104.802 10 0 58586 71100.00000 0 -6150139.860 17660930.140 -17322064.132 10 0 58586 72000.00000 0 -6346017.146 15401864.291 -19295899.542 10 0 58586 72900.00000 0 -6755250.662 12948726.788 -20894246.765 10 0 58586 73800.00000 0 -7392801.153 10367833.190 -22086070.884 10 0 58586 74700.00000 0 -8261251.429 7728580.364 -22848266.988 10 0 58586 75600.00000 0 -9350542.525 5100742.902 -23166104.279 10 0 58586 76500.00000 0 -10638257.468 2551767.215 -23033505.588 10 0 58586 77400.00000 0 -12090440.724 144175.838 -22453157.534 10 0 58586 78300.00000 0 -13662918.948 -2066810.650 -21436449.898 10 0 58586 79200.00000 0 -15303067.564 -4035336.018 -20003245.999 10 0 58586 80100.00000 0 -16951949.033 -5726570.503 -18181489.052 10 0 58586 81000.00000 0 -18546733.194 -7117905.002 -16006652.582 10 0 58586 81900.00000 0 -20023298.275 -8199629.411 -13521045.779 10 0 58586 82800.00000 0 -21318903.642 -8975068.655 -10772987.564 10 0 58586 83700.00000 0 -22374822.395 -9460172.777 -7815865.479 10 0 58586 84600.00000 0 -23138823.639 -9682580.189 -4707097.734 10 0 58586 85500.00000 0 -23567400.552 -9680195.116 -1507018.720 10 0 58587 0.00000 0 -23627651.088 -9499340.547 1722290.348 10 0 58587 900.00000 0 -23298732.334 -9192565.737 4918203.354 10 0 58587 1800.00000 0 -22572828.807 -8816201.094 8018759.467 10 0 58587 2700.00000 0 -21455592.351 -8427764.728 10963859.610 10 0 58587 3600.00000 0 -19966037.158 -8083329.496 13696425.400 10 0 58587 4500.00000 0 -18135892.775 -7834962.066 16163498.788 10 0 58587 5400.00000 0 -16008442.314 -7728341.573 18317261.658 10 0 58587 6300.00000 0 -13636893.530 -7800658.071 20115956.338 10 0 58587 7200.00000 0 -11082349.896 -8078879.107 21524689.815 10 0 58587 8100.00000 0 -8411465.064 -8578457.438 22516106.825 10 0 58587 9000.00000 0 -5693877.015 -9302534.554 23070919.346 10 0 58587 9900.00000 0 -2999527.301 -10241674.133 23178282.543 10 0 58587 10800.00000 0 -395975.362 -11374137.641 22836010.021 10 0 58587 11700.00000 0 2054181.809 -12666691.849 22050623.939 10 0 58587 12600.00000 0 4295678.465 -14075915.905 20837238.464 10 0 58587 13500.00000 0 6282639.864 -15549954.766 19219277.977 10 0 58587 14400.00000 0 7980247.919 -17030646.996 17228034.405 10 0 58587 15300.00000 0 9365943.715 -18455938.907 14902071.137 10 0 58587 16200.00000 0 10430117.001 -19762484.671 12286483.930 10 0 58587 17100.00000 0 11176253.996 -20888323.621 9432032.131 10 0 58587 18000.00000 0 11620537.398 -21775522.152 6394156.432 10 0 58587 18900.00000 0 11790915.680 -22372668.535 3231901.843 10 0 58587 19800.00000 0 11725681.214 -22637114.687 6766.788 10 0 58587 20700.00000 0 11471617.719 -22536869.185 -3218498.786 10 0 58587 21600.00000 0 11081796.120 -22052060.378 -6381122.220 10 0 58587 22500.00000 0 10613112.977 -21175906.516 -9419539.010 10 0 58587 23400.00000 0 10123676.829 -19915150.747 -12274600.582 10 0 58587 24300.00000 0 9670154.310 -18289941.620 -14890734.426 10 0 58587 25200.00000 0 9305189.606 -16333163.325 -17217033.048 10 0 58587 26100.00000 0 9075007.578 -14089243.392 -19208249.781 10 0 58587 27000.00000 0 9017302.818 -11612487.646 -20825681.648 10 0 58587 27900.00000 0 9159504.547 -8965012.141 -22037922.023 10 0 58587 28800.00000 0 9517491.020 -6214358.701 -22821468.583 10 0 58587 29700.00000 0 10094807.819 -3430893.722 -23161175.188 10 0 58587 30600.00000 0 10882422.990 -685098.620 -23050539.499 10 0 58587 31500.00000 0 11859029.066 1955135.321 -22491821.434 10 0 58587 32400.00000 0 12991879.074 4427095.667 -21495990.824 10 0 58587 33300.00000 0 14238121.053 6675614.180 -20082505.930 10 0 58587 34200.00000 0 15546574.728 8655111.436 -18278927.640 10 0 58587 35100.00000 0 16859875.493 10331236.985 -16120377.239 10 0 58587 36000.00000 0 18116895.505 11682038.398 -13648848.544 10 0 58587 36900.00000 0 19255340.109 12698612.189 -10912388.011 10 0 58587 37800.00000 0 20214410.530 13385211.340 -7964158.846 10 0 58587 38700.00000 0 20937421.045 13758806.907 -4861407.345 10 0 58587 39600.00000 0 21374260.754 13848123.816 -1664351.674 10 0 58587 40500.00000 0 21483596.672 13692193.007 1564985.313 10 0 58587 41400.00000 0 21234725.689 13338482.131 4763976.645 10 0 58587 42300.00000 0 20608997.727 12840684.482 7870601.821 10 0 58587 43200.00000 0 19600750.335 12256259.952 10824644.205 10 0 58587 44100.00000 0 18217715.379 11643831.972 13568852.289 10 0 58587 45000.00000 0 16480880.474 11060550.113 16050042.682 10 0 58587 45900.00000 0 14423810.428 10559529.285 18220124.062 10 0 58587 46800.00000 0 12091456.214 10187473.021 20037022.930 10 0 58587 47700.00000 0 9538500.222 9982580.518 21465493.900 10 0 58587 48600.00000 0 6827305.457 9972825.185 22477799.539 10 0 58587 49500.00000 0 4025552.611 10174677.004 23054247.184 10 0 58587 50400.00000 0 1203661.774 10592322.541 23183572.650 10 0 58587 51300.00000 0 -1567895.618 11217415.915 22863163.530 10 0 58587 52200.00000 0 -4221284.506 12029372.021 22099117.515 10 0 58587 53100.00000 0 -6693883.098 12996190.802 20906134.057 10 0 58587 54000.00000 0 -8930643.028 14075779.284 19307240.634 10 0 58587 54900.00000 0 -10886135.360 15217717.181 17333357.840 10 0 58587 55800.00000 0 -12526197.726 16365393.130 15022710.605 10 0 58587 56700.00000 0 -13829114.191 17458422.675 12420095.791 10 0 58587 57600.00000 0 -14786278.668 18435246.912 9576019.364 10 0 58587 58500.00000 0 -15402314.121 19235802.437 6545719.194 10 0 58587 59400.00000 0 -15694642.638 19804149.765 3388092.092 10 0 58587 60300.00000 0 -15692524.684 20090948.560 164545.862 10 0 58587 61200.00000 0 -15435608.326 20055674.060 -3062200.771 10 0 58587 62100.00000 0 -14972050.317 19668479.773 -6229346.360 10 0 58587 63000.00000 0 -14356289.202 18911626.276 -9275238.180 10 0 58587 63900.00000 0 -13646565.650 17780414.408 -12140581.751 10 0 58587 64800.00000 0 -12902295.997 16283582.165 -14769603.879 10 0 58587 65700.00000 0 -12181411.265 14443147.489 -17111145.588 10 0 58587 66600.00000 0 -11537775.239 12293702.767 -19119662.911 10 0 58587 67500.00000 0 -11018791.586 9881190.121 -20756115.621 10 0 58587 68400.00000 0 -10663301.724 7261208.470 -21988726.553 10 0 58587 69300.00000 0 -10499862.471 4496923.116 -22793596.822 10 0 58587 70200.00000 0 -10545476.137 1656665.098 -23155165.475 10 0 58587 71100.00000 0 -10804826.317 -1188679.728 -23066505.205 10 0 58587 72000.00000 0 -11270051.139 -3968383.186 -22529449.051 10 0 58587 72900.00000 0 -11921062.917 -6614576.418 -21554546.350 10 0 58587 73800.00000 0 -12726400.135 -9064828.924 -20160849.372 10 0 58587 74700.00000 0 -13644575.319 -11264498.496 -18375535.368 10 0 58587 75600.00000 0 -14625861.542 -13168755.519 -16233371.747 10 0 58587 76500.00000 0 -15614441.990 -14744198.709 -13776035.033 10 0 58587 77400.00000 0 -16550831.826 -15969996.482 -11051297.095 10 0 58587 78300.00000 0 -17374470.229 -16838508.102 -8112094.530 10 0 58587 79200.00000 0 -18026373.442 -17355360.411 -5015499.351 10 0 58587 80100.00000 0 -18451737.097 -17538978.665 -1821611.087 10 0 58587 81000.00000 0 -18602378.339 -17419592.802 1407608.174 10 0 58587 81900.00000 0 -18438915.011 -17037762.293 4609533.232 10 0 58587 82800.00000 0 -17932590.233 -16442482.702 7722086.401 10 0 58587 83700.00000 0 -17066665.626 -15688954.416 10684936.040 10 0 58587 84600.00000 0 -15837324.443 -14836107.921 13440660.066 10 0 58587 85500.00000 0 -14254046.374 -13943989.873 15935852.213 10 0 58588 0.00000 0 -12339437.788 -13071119.792 18122150.225 10 0 58588 900.00000 0 -10128523.188 -12271928.394 19957166.941 10 0 58588 1800.00000 0 -7667527.562 -11594383.969 21405306.337 10 0 58588 2700.00000 0 -5012197.357 -11077907.518 22438450.203 10 0 58588 3600.00000 0 -2225729.893 -10751662.038 23036502.226 10 0 58588 4500.00000 0 623605.068 -10633288.828 23187779.431 10 0 58588 5400.00000 0 3465054.216 -10728143.287 22889243.544 10 0 58588 6300.00000 0 6228074.237 -11029062.811 22146567.535 10 0 58588 7200.00000 0 8845019.508 -11516677.126 20974035.524 10 0 58588 8100.00000 0 11253713.528 -12160248.929 19394277.131 10 0 58588 9000.00000 0 13399798.103 -12919010.527 17437840.348 10 0 58588 9900.00000 0 15238762.975 -13743941.300 15142610.074 10 0 58588 10800.00000 0 16737571.635 -14579912.072 12553082.407 10 0 58588 11700.00000 0 17875815.487 -15368106.679 9719507.762 10 0 58588 12600.00000 0 18646347.928 -16048618.871 6696918.759 10 0 58588 13500.00000 0 19055371.709 -16563114.759 3544061.331 10 0 58588 14400.00000 0 19121975.873 -16857447.729 322249.831 10 0 58588 15300.00000 0 18877141.913 -16884114.311 -2905831.170 10 0 58588 16200.00000 0 18362261.386 -16604445.845 -6077354.356 10 0 58588 17100.00000 0 17627228.211 -15990441.825 -9130581.611 10 0 58588 18000.00000 0 16728186.987 -15026165.876 -12006075.249 10 0 58588 18900.00000 0 15725033.529 -13708643.947 -14647863.892 10 0 58588 19800.00000 0 14678774.225 -12048225.478 -17004539.373 10 0 58588 20700.00000 0 13648856.833 -10068391.283 -19030262.459 10 0 58588 21600.00000 0 12690586.237 -7805015.344 -20685657.448 10 0 58588 22500.00000 0 11852734.824 -5305110.889 -21938578.086 10 0 58588 23400.00000 0 11175448.519 -2625112.928 -22764730.050 10 0 58588 24300.00000 0 10688536.680 171231.238 -23148138.324 10 0 58588 25200.00000 0 10410217.443 3015275.712 -23081450.992 10 0 58588 26100.00000 0 10346370.707 5836093.467 -22566074.209 10 0 58588 27000.00000 0 10490329.302 8563188.945 -21612136.426 10 0 58588 27900.00000 0 10823216.173 11129193.464 -20238283.193 10 0 58588 28800.00000 0 11314812.412 13472431.871 -18471307.060 10 0 58588 29700.00000 0 11924918.672 15539254.638 -16345620.168 10 0 58588 30600.00000 0 12605151.854 17286039.434 -13902580.053 10 0 58588 31500.00000 0 13301100.740 18680780.007 -11189681.982 10 0 58588 32400.00000 0 13954749.283 19704197.634 -8259633.643 10 0 58588 33300.00000 0 14507065.079 20350330.279 -5169330.193 10 0 58588 34200.00000 0 14900643.731 20626576.369 -1978749.735 10 0 58588 35100.00000 0 15082297.535 20553192.928 1250209.346 10 0 58588 36000.00000 0 15005479.347 20162270.523 4454926.633 10 0 58588 36900.00000 0 14632439.480 19496229.201 7573270.243 10 0 58588 37800.00000 0 13936024.753 18605899.524 10544796.426 10 0 58588 38700.00000 0 12901043.802 17548269.877 13311915.255 10 0 58588 39600.00000 0 11525140.957 16383994.974 15821000.142 10 0 58588 40500.00000 0 9819141.420 15174770.143 18023420.294 10 0 58588 41400.00000 0 7806852.410 13980681.291 19876476.805 10 0 58588 42300.00000 0 5524327.518 12857641.263 21344224.873 10 0 58588 43200.00000 0 3018623.547 11855019.457 22398167.011 10 0 58588 44100.00000 0 346100.025 11013563.442 23017804.371 10 0 58588 45000.00000 0 -2429669.545 10363699.143 23191035.886 10 0 58588 45900.00000 0 -5240289.686 9924280.480 22914397.627 10 0 58588 46800.00000 0 -8015140.628 9701840.727 22193137.532 10 0 58588 47700.00000 0 -10684075.274 9690377.187 21041123.507 10 0 58588 48600.00000 0 -13180104.787 9871678.633 19480585.869 10 0 58588 49500.00000 0 -15441962.219 10216182.370 17541698.030 10 0 58588 50400.00000 0 -17416438.009 10684325.633 15262002.416 10 0 58588 51300.00000 0 -19060390.432 11228335.129 12685691.564 10 0 58588 52200.00000 0 -20342347.041 11794379.831 9862757.304 10 0 58588 53100.00000 0 -21243629.895 12324996.497 6848023.847 10 0 58588 54000.00000 0 -21758957.147 12761685.323 3700083.102 10 0 58588 54900.00000 0 -21896495.479 13047565.539 480152.874 10 0 58588 55800.00000 0 -21677361.003 13129977.698 -2749119.371 10 0 58588 56700.00000 0 -21134589.735 12962921.329 -5924883.274 10 0 58588 57600.00000 0 -20311621.387 12509223.317 -8985317.977 10 0 58588 58500.00000 0 -19260361.026 11742343.724 -11870845.046 10 0 58588 59400.00000 0 -18038901.219 10647741.143 -14525297.160 10 0 58588 60300.00000 0 -16709001.738 9223738.416 -16897018.920 10 0 58588 61200.00000 0 -15333434.087 7481850.990 -18939877.490 10 0 58588 62100.00000 0 -13973303.707 5446562.985 -20614162.982 10 0 58588 63000.00000 0 -12685463.261 3154559.544 -21887360.979 10 0 58588 63900.00000 0 -11520126.288 653447.110 -22734782.225 10 0 58588 64800.00000 0 -10518781.549 -1999985.284 -23140037.759 10 0 58588 65700.00000 0 -9712495.341 -4741891.396 -23095350.776 10 0 58588 66600.00000 0 -9120672.408 -7503791.381 -22601699.879 10 0 58588 67500.00000 0 -8750326.452 -10215192.964 -21668791.604 10 0 58588 68400.00000 0 -8595889.658 -12806301.438 -20314863.405 10 0 58588 69300.00000 0 -8639567.956 -15210706.166 -18566321.444 10 0 58588 70200.00000 0 -8852225.728 -17367932.469 -16457220.665 10 0 58588 71100.00000 0 -9194761.539 -19225753.516 -14028597.489 10 0 58588 72000.00000 0 -9619915.899 -20742166.861 -11327668.347 10 0 58588 72900.00000 0 -10074434.015 -21886954.380 -8406909.724 10 0 58588 73800.00000 0 -10501491.699 -22642761.807 -5323037.639 10 0 58588 74700.00000 0 -10843281.641 -23005653.996 -2135906.521 10 0 58588 75600.00000 0 -11043650.652 -22985124.101 1092651.153 10 0 58588 76500.00000 0 -11050676.426 -22603557.538 4300021.916 10 0 58588 77400.00000 0 -10819075.050 -21895174.294 7424021.836 10 0 58588 78300.00000 0 -10312337.677 -20904494.906 10404097.200 10 0 58588 79200.00000 0 -9504506.204 -19684395.056 13182492.367 10 0 58588 80100.00000 0 -8381512.968 -18293830.762 15705362.507 10 0 58588 81000.00000 0 -6942027.680 -16795329.558 17923810.239 10 0 58588 81900.00000 0 -5197775.278 -15252352.535 19794826.809 10 0 58588 82800.00000 0 -3173310.391 -13726637.249 21282120.217 10 0 58588 83700.00000 0 -905256.471 -12275632.028 22356815.009 10 0 58588 84600.00000 0 1558960.287 -10950128.235 22998010.810 10 0 58588 85500.00000 0 4162831.220 -9792188.804 23193189.109 99